ECHOSTAR 4

导读

ECHOSTAR 4是美国EchoStar公司运营的一颗地球静止轨道通信卫星,于1998年5月7日发射入轨,属于EchoStar卫星星座的一员。该卫星主要为北美地区提供直接到户的卫星电视广播服务,依托高功率转发器技术保障信号稳定传输,支撑主流卫星电视平台运营,是EchoStar星座早期推动卫星电视普及的重要空间节点,在卫星通信发展历程中发挥了作用。

基本信息
目录编号:
25331
目录名称:
ECHOSTAR 4
国际标识:
1998-028A
轨道中心:
EARTH
卫星名称:
ECHOSTAR 4
卫星全名:
--
卫星状态:
在轨 (已飞行10354 天)
发射日期:
1998-05-07 UTC
国别 :
美国 (US)
星等 :
--
该卫星已列入 空间交会检测服务 Space Conjunction Data Service (SCDS) ,当前飞行风险评估等级: 无高风险
轨道信息
数据来源 国际轨道数据
星历时间: 2026-09-11T07:38:21+0800
13小时前
查看轨道信息
半长轴: 42539.797km
偏心率: 0.0010626
轨道倾角: 11.869°
近地点辐角 266.820°
升交点赤经 30.558°
平近点角 274.904°
近地点: 36116.457km
远地点: 36206.863km
周期: 1455.301分钟
每日圈数: 0.989486
详细信息
使用方式:
暂无
2D轨道图
3D轨道图
轨道高度分析图
轨道倾角分析图
轨道综合分析图
查看轨道综合分析图
与全量物体交会距离演化趋势
与全量物体交会风险概率演化趋势